| time (UTC) | temp F | wind direction | speed MPH | gust MPH | rain 1hr in | rain 24hr in | rain mn in | humidity % | barometer mb |
| 20260902235033 | 79 | 0 | 0.0 | 0.0 | 0.00 | 0.00 | 0.00 | 80 | 1020.3 |
| 20260902234559 | 80 | 0 | 0.0 | 0.0 | 0.00 | 0.00 | 0.00 | 79 | 1020.4 |
| 20260902234033 | 80 | 0 | 0.0 | 0.0 | 0.00 | 0.00 | 0.00 | 79 | 1020.1 |
| 20260902233555 | 81 | 0 | 0.0 | 0.0 | 0.00 | 0.00 | 0.00 | 80 | 1020.3 |
| 20260902233059 | 81 | 0 | 0.0 | 1.0 | 0.00 | 0.00 | 0.00 | 80 | 1020.2 |
| 20260902232533 | 82 | 0 | 0.0 | 1.0 | 0.00 | 0.00 | 0.00 | 79 | 1020.3 |
| 20260902232039 | 82 | 0 | 0.0 | 2.0 | 0.00 | 0.00 | 0.00 | 78 | 1020.4 |
| 20260902231557 | 83 | 0 | 0.0 | 2.0 | 0.00 | 0.00 | 0.00 | 77 | 1020.3 |
| 20260902231036 | 83 | 0 | 0.0 | 2.0 | 0.00 | 0.00 | 0.00 | 75 | 1020.5 |
| 20260902230536 | 84 | 0 | 0.0 | 1.0 | 0.00 | 0.00 | 0.00 | 74 | 1020.4 |
| 20260902230106 | 84 | 0 | 0.0 | 0.0 | 0.00 | 0.00 | 0.00 | 75 | 1020.4 |
| 20260902225537 | 85 | 0 | 0.0 | 0.0 | 0.00 | 0.00 | 0.00 | 73 | 1020.3 |
| 20260902225036 | 85 | 0 | 0.0 | 1.0 | 0.00 | 0.00 | 0.00 | 74 | 1020.3 |
| 20260902224605 | 85 | 0 | 0.0 | 1.0 | 0.00 | 0.00 | 0.00 | 74 | 1020.4 |
| 20260902224036 | 85 | 0 | 0.0 | 2.0 | 0.00 | 0.00 | 0.00 | 73 | 1020.3 |
| 20260902223536 | 85 | 0 | 0.0 | 2.0 | 0.00 | 0.00 | 0.00 | 73 | 1020.2 |
| 20260902223106 | 85 | 0 | 0.0 | 2.0 | 0.00 | 0.00 | 0.00 | 72 | 1020.2 |
| 20260902222535 | 85 | 0 | 0.0 | 0.0 | 0.00 | 0.00 | 0.00 | 72 | 1020.4 |
| 20260902222035 | 86 | 0 | 0.0 | 0.0 | 0.00 | 0.00 | 0.00 | 72 | 1020.4 |
| 20260902221559 | 86 | 0 | 0.0 | 0.0 | 0.00 | 0.00 | 0.00 | 70 | 1020.3 |
| 20260902221033 | 86 | 0 | 0.0 | 0.0 | 0.00 | 0.00 | 0.00 | 71 | 1020.4 |
| 20260902220533 | 87 | 0 | 0.0 | 0.0 | 0.00 | 0.00 | 0.00 | 69 | 1020.4 |
| 20260902220109 | 87 | 0 | 0.0 | 2.0 | 0.00 | 0.00 | 0.00 | 69 | 1020.5 |
| 20260902215535 | 87 | 0 | 0.0 | 2.0 | 0.00 | 0.00 | 0.00 | 67 | 1020.5 |
| 20260902215032 | 87 | 0 | 0.0 | 2.0 | 0.00 | 0.00 | 0.00 | 65 | 1020.6 |
| 20260902214607 | 88 | 0 | 0.0 | 5.0 | 0.00 | 0.00 | 0.00 | 65 | 1020.6 |
| 20260902214035 | 88 | 0 | 1.0 | 5.0 | 0.00 | 0.00 | 0.00 | 64 | 1020.5 |
| 20260902213536 | 88 | 207 | 0.0 | 4.0 | 0.00 | 0.00 | 0.00 | 64 | 1020.5 |
| 20260902213056 | 88 | 0 | 1.0 | 5.0 | 0.00 | 0.00 | 0.00 | 65 | 1020.4 |
| 20260902212535 | 88 | 192 | 2.0 | 5.0 | 0.00 | 0.00 | 0.00 | 62 | 1020.3 |
| 20260902212033 | 88 | 0 | 1.0 | 5.0 | 0.00 | 0.00 | 0.00 | 62 | 1020.4 |
| 20260902211554 | 88 | 213 | 1.0 | 5.0 | 0.00 | 0.00 | 0.00 | 63 | 1020.4 |
| 20260902211034 | 88 | 0 | 0.0 | 4.0 | 0.00 | 0.00 | 0.00 | 62 | 1020.3 |
| 20260902210537 | 88 | 205 | 0.0 | 4.0 | 0.00 | 0.00 | 0.00 | 64 | 1020.4 |
| 20260902210056 | 88 | 200 | 1.0 | 4.0 | 0.00 | 0.00 | 0.00 | 61 | 1020.5 |
| 20260902205534 | 88 | 0 | 1.0 | 7.0 | 0.00 | 0.00 | 0.00 | 63 | 1020.4 |
| 20260902205035 | 88 | 207 | 1.0 | 7.0 | 0.00 | 0.00 | 0.00 | 64 | 1020.5 |
| 20260902204557 | 88 | 189 | 1.0 | 6.0 | 0.00 | 0.00 | 0.00 | 63 | 1020.5 |
| 20260902204033 | 88 | 203 | 1.0 | 5.0 | 0.00 | 0.00 | 0.00 | 63 | 1020.6 |
| 20260902203533 | 88 | 0 | 0.0 | 4.0 | 0.00 | 0.00 | 0.00 | 63 | 1020.6 |
| 20260902203056 | 88 | 0 | 1.0 | 4.0 | 0.00 | 0.00 | 0.00 | 63 | 1020.6 |
| 20260902202533 | 88 | 0 | 0.0 | 4.0 | 0.00 | 0.00 | 0.00 | 67 | 1020.6 |
| 20260902202034 | 87 | 0 | 0.0 | 2.0 | 0.00 | 0.00 | 0.00 | 64 | 1020.5 |
| 20260902201605 | 87 | 0 | 0.0 | 5.0 | 0.00 | 0.00 | 0.00 | 63 | 1020.6 |
| 20260902201034 | 88 | 0 | 0.0 | 5.0 | 0.00 | 0.00 | 0.00 | 65 | 1020.6 |
| 20260902200535 | 89 | 210 | 0.0 | 3.0 | 0.00 | 0.00 | 0.00 | 63 | 1020.7 |
| 20260902200058 | 89 | 209 | 1.0 | 5.0 | 0.00 | 0.00 | 0.00 | 61 | 1020.8 |
| 20260902195533 | 89 | 0 | 0.0 | 5.0 | 0.00 | 0.00 | 0.00 | 60 | 1020.8 |
| 20260902195034 | 89 | 196 | 0.0 | 5.0 | 0.00 | 0.00 | 0.00 | 60 | 1020.9 |
| 20260902194600 | 89 | 0 | 0.0 | 3.0 | 0.00 | 0.00 | 0.00 | 62 | 1021.0 |
| 20260902194035 | 89 | 0 | 0.0 | 3.0 | 0.00 | 0.00 | 0.00 | 63 | 1021.1 |
| 20260902193535 | 89 | 0 | 0.0 | 3.0 | 0.00 | 0.00 | 0.00 | 61 | 1021.1 |
| 20260902193058 | 89 | 216 | 0.0 | 2.0 | 0.00 | 0.00 | 0.00 | 63 | 1021.1 |
| 20260902192533 | 89 | 0 | 0.0 | 5.0 | 0.00 | 0.00 | 0.00 | 59 | 1021.2 |
| 20260902192034 | 88 | 0 | 0.0 | 6.0 | 0.00 | 0.00 | 0.00 | 63 | 1021.4 |
| 20260902191557 | 88 | 202 | 2.0 | 6.0 | 0.00 | 0.00 | 0.00 | 60 | 1021.3 |
| 20260902191033 | 88 | 201 | 0.0 | 5.0 | 0.00 | 0.00 | 0.00 | 63 | 1021.3 |
| 20260902190534 | 88 | 215 | 0.0 | 5.0 | 0.00 | 0.00 | 0.00 | 63 | 1021.4 |
| 20260902190058 | 88 | 0 | 1.0 | 4.0 | 0.00 | 0.00 | 0.00 | 62 | 1021.4 |
| 20260902185534 | 88 | 0 | 0.0 | 3.0 | 0.00 | 0.00 | 0.00 | 64 | 1021.5 |
| 20260902185034 | 88 | 0 | 0.0 | 3.0 | 0.00 | 0.00 | 0.00 | 63 | 1021.5 |
| 20260902184604 | 88 | 0 | 0.0 | 3.0 | 0.00 | 0.00 | 0.00 | 67 | 1021.5 |
| 20260902184037 | 88 | 0 | 0.0 | 1.0 | 0.00 | 0.00 | 0.00 | 64 | 1021.6 |
| 20260902183536 | 87 | 0 | 0.0 | 2.0 | 0.00 | 0.00 | 0.00 | 67 | 1021.5 |
| 20260902183103 | 88 | 0 | 0.0 | 2.0 | 0.00 | 0.00 | 0.00 | 63 | 1021.7 |
| 20260902182533 | 89 | 0 | 0.0 | 3.0 | 0.00 | 0.00 | 0.00 | 64 | 1021.7 |
| 20260902182033 | 89 | 0 | 0.0 | 3.0 | 0.00 | 0.00 | 0.00 | 65 | 1021.7 |
| 20260902181557 | 88 | 0 | 0.0 | 5.0 | 0.00 | 0.00 | 0.00 | 66 | 1021.8 |
| 20260902181037 | 88 | 225 | 0.0 | 5.0 | 0.00 | 0.00 | 0.00 | 66 | 1021.8 |
| 20260902180533 | 88 | 217 | 1.0 | 5.0 | 0.00 | 0.00 | 0.00 | 63 | 1021.8 |
| 20260902180101 | 88 | 0 | 0.0 | 5.0 | 0.00 | 0.00 | 0.00 | 63 | 1021.8 |
| 20260902175533 | 87 | 0 | 0.0 | 4.0 | 0.00 | 0.00 | 0.00 | 67 | 1021.9 |
| 20260902175039 | 87 | 205 | 0.0 | 3.0 | 0.00 | 0.00 | 0.00 | 64 | 1021.8 |
| 20260902174558 | 88 | 0 | 0.0 | 6.0 | 0.00 | 0.00 | 0.00 | 63 | 1022.0 |
| 20260902174037 | 88 | 0 | 0.0 | 6.0 | 0.00 | 0.00 | 0.00 | 64 | 1022.1 |
| 20260902173533 | 88 | 211 | 1.0 | 6.0 | 0.00 | 0.00 | 0.00 | 63 | 1022.1 |
| 20260902173126 | 88 | 0 | 0.0 | 4.0 | 0.00 | 0.00 | 0.00 | 64 | 1022.3 |
| 20260902172555 | 87 | 0 | 0.0 | 2.0 | 0.00 | 0.00 | 0.00 | 64 | 1022.4 |
| 20260902172033 | 87 | 0 | 0.0 | 2.0 | 0.00 | 0.00 | 0.00 | 64 | 1022.6 |
| 20260902171619 | 87 | 0 | 0.0 | 4.0 | 0.00 | 0.00 | 0.00 | 63 | 1022.6 |
| 20260902171037 | 86 | 0 | 0.0 | 5.0 | 0.00 | 0.00 | 0.00 | 66 | 1022.8 |
| 20260902170533 | 86 | 0 | 2.0 | 6.0 | 0.00 | 0.00 | 0.00 | 64 | 1022.6 |
| 20260902170059 | 87 | 212 | 1.0 | 6.0 | 0.00 | 0.00 | 0.00 | 64 | 1022.7 |
| 20260902165535 | 86 | 0 | 0.0 | 4.0 | 0.00 | 0.00 | 0.00 | 66 | 1022.8 |
| 20260902165033 | 86 | 212 | 0.0 | 5.0 | 0.00 | 0.00 | 0.00 | 66 | 1022.9 |
| 20260902164601 | 86 | 0 | 1.0 | 5.0 | 0.00 | 0.00 | 0.00 | 67 | 1022.9 |
| 20260902164033 | 86 | 198 | 0.0 | 5.0 | 0.00 | 0.00 | 0.00 | 66 | 1023.1 |
| 20260902163533 | 85 | 0 | 0.0 | 5.0 | 0.00 | 0.00 | 0.00 | 64 | 1023.1 |
| 20260902163057 | 85 | 205 | 0.0 | 5.0 | 0.00 | 0.00 | 0.00 | 64 | 1023.2 |
| 20260902162532 | 85 | 197 | 0.0 | 5.0 | 0.00 | 0.00 | 0.00 | 68 | 1023.2 |
| 20260902162033 | 85 | 0 | 0.0 | 5.0 | 0.00 | 0.00 | 0.00 | 66 | 1023.1 |
| 20260902161601 | 85 | 0 | 0.0 | 4.0 | 0.00 | 0.00 | 0.00 | 70 | 1023.1 |
| 20260902161035 | 85 | 0 | 0.0 | 4.0 | 0.00 | 0.00 | 0.00 | 69 | 1023.2 |
| 20260902160539 | 85 | 0 | 1.0 | 3.0 | 0.00 | 0.00 | 0.00 | 66 | 1023.3 |
| 20260902160103 | 84 | 0 | 0.0 | 3.0 | 0.00 | 0.00 | 0.00 | 68 | 1023.3 |
| 20260902155534 | 84 | 0 | 0.0 | 3.0 | 0.00 | 0.00 | 0.00 | 71 | 1023.3 |
| 20260902155035 | 84 | 0 | 0.0 | 3.0 | 0.00 | 0.00 | 0.00 | 70 | 1023.3 |
| 20260902154551 | 84 | 0 | 0.0 | 4.0 | 0.00 | 0.00 | 0.00 | 68 | 1023.3 |
| 20260902154034 | 83 | 0 | 0.0 | 4.0 | 0.00 | 0.00 | 0.00 | 68 | 1023.3 |
| 20260902153533 | 83 | 0 | 0.0 | 4.0 | 0.00 | 0.00 | 0.00 | 71 | 1023.3 |
| 20260902153054 | 83 | 0 | 0.0 | 0.0 | 0.00 | 0.00 | 0.00 | 71 | 1023.1 |
| 20260902152535 | 83 | 0 | 0.0 | 0.0 | 0.00 | 0.00 | 0.00 | 70 | 1023.3 |
| 20260902152032 | 83 | 0 | 0.0 | 0.0 | 0.00 | 0.00 | 0.00 | 70 | 1023.2 |
| 20260902151552 | 82 | 0 | 0.0 | 0.0 | 0.00 | 0.00 | 0.00 | 71 | 1023.3 |
| 20260902151033 | 82 | 0 | 0.0 | 0.0 | 0.00 | 0.00 | 0.00 | 71 | 1023.4 |
| 20260902150532 | 82 | 0 | 0.0 | 0.0 | 0.00 | 0.00 | 0.00 | 73 | 1023.4 |
| 20260902150057 | 82 | 0 | 0.0 | 0.0 | 0.00 | 0.00 | 0.00 | 74 | 1023.3 |
| 20260902145534 | 81 | 0 | 0.0 | 0.0 | 0.00 | 0.00 | 0.00 | 77 | 1023.3 |
| 20260902145036 | 81 | 0 | 0.0 | 0.0 | 0.00 | 0.00 | 0.00 | 76 | 1023.2 |
| 20260902144603 | 80 | 0 | 0.0 | 0.0 | 0.00 | 0.00 | 0.00 | 77 | 1023.2 |
| 20260902144035 | 80 | 0 | 0.0 | 0.0 | 0.00 | 0.00 | 0.00 | 78 | 1023.2 |
| 20260902143534 | 80 | 0 | 0.0 | 0.0 | 0.00 | 0.00 | 0.00 | 80 | 1023.2 |
| 20260902143053 | 79 | 0 | 0.0 | 0.0 | 0.00 | 0.00 | 0.00 | 80 | 1023.2 |
| 20260902142533 | 79 | 0 | 0.0 | 0.0 | 0.00 | 0.00 | 0.00 | 81 | 1023.1 |
| 20260902142033 | 78 | 0 | 0.0 | 0.0 | 0.00 | 0.00 | 0.00 | 81 | 1023.2 |
| 20260902141605 | 77 | 0 | 0.0 | 0.0 | 0.00 | 0.00 | 0.00 | 82 | 1023.2 |
| 20260902141036 | 77 | 0 | 0.0 | 0.0 | 0.00 | 0.00 | 0.00 | 81 | 1023.1 |
| 20260902140535 | 76 | 0 | 0.0 | 0.0 | 0.00 | 0.00 | 0.00 | 84 | 1023.1 |
| 20260902140046 | 76 | 0 | 0.0 | 0.0 | 0.00 | 0.00 | 0.00 | 86 | 1023.2 |
| 20260902135533 | 75 | 0 | 0.0 | 0.0 | 0.00 | 0.00 | 0.00 | 88 | 1023.2 |
| 20260902135034 | 74 | 0 | 0.0 | 0.0 | 0.00 | 0.00 | 0.00 | 88 | 1023.2 |
| 20260902134556 | 73 | 0 | 0.0 | 0.0 | 0.00 | 0.00 | 0.00 | 90 | 1023.2 |
| 20260902134034 | 73 | 0 | 0.0 | 0.0 | 0.00 | 0.00 | 0.00 | 93 | 1023.2 |
| 20260902133533 | 72 | 0 | 0.0 | 0.0 | 0.00 | 0.00 | 0.00 | 94 | 1023.2 |
| 20260902133057 | 71 | 0 | 0.0 | 0.0 | 0.00 | 0.00 | 0.00 | 95 | 1023.2 |
| 20260902132535 | 71 | 0 | 0.0 | 0.0 | 0.00 | 0.00 | 0.00 | 96 | 1023.1 |
| 20260902132037 | 70 | 0 | 0.0 | 0.0 | 0.00 | 0.00 | 0.00 | 96 | 1023.2 |
| 20260902131555 | 70 | 0 | 0.0 | 0.0 | 0.00 | 0.00 | 0.00 | 96 | 1023.2 |
| 20260902131035 | 70 | 0 | 0.0 | 0.0 | 0.00 | 0.00 | 0.00 | 96 | 1023.1 |
| 20260902130532 | 69 | 0 | 0.0 | 0.0 | 0.00 | 0.00 | 0.00 | 96 | 1023.2 |
| 20260902130052 | 69 | 0 | 0.0 | 0.0 | 0.00 | 0.00 | 0.00 | 96 | 1023.3 |
| 20260902125533 | 69 | 0 | 0.0 | 0.0 | 0.00 | 0.00 | 0.00 | 96 | 1023.3 |
| 20260902125034 | 69 | 0 | 0.0 | 0.0 | 0.00 | 0.00 | 0.00 | 96 | 1023.2 |
| 20260902124606 | 68 | 0 | 0.0 | 0.0 | 0.00 | 0.00 | 0.00 | 96 | 1023.3 |
| 20260902124035 | 68 | 0 | 0.0 | 0.0 | 0.00 | 0.00 | 0.00 | 96 | 1023.2 |
| 20260902123538 | 68 | 0 | 0.0 | 0.0 | 0.00 | 0.00 | 0.00 | 96 | 1023.2 |
| 20260902123138 | 68 | 0 | 0.0 | 0.0 | 0.00 | 0.00 | 0.00 | 95 | 1023.2 |
| 20260902122533 | 68 | 0 | 0.0 | 0.0 | 0.00 | 0.00 | 0.00 | 95 | 1023.1 |
| 20260902122033 | 68 | 0 | 0.0 | 0.0 | 0.00 | 0.00 | 0.00 | 95 | 1023.1 |
| 20260902121557 | 67 | 0 | 0.0 | 0.0 | 0.00 | 0.00 | 0.00 | 95 | 1023.1 |
| 20260902121034 | 67 | 0 | 0.0 | 0.0 | 0.00 | 0.00 | 0.00 | 95 | 1022.9 |
| 20260902120534 | 67 | 0 | 0.0 | 0.0 | 0.00 | 0.00 | 0.00 | 95 | 1022.8 |
| 20260902120058 | 67 | 0 | 0.0 | 0.0 | 0.00 | 0.00 | 0.00 | 95 | 1022.8 |
| 20260902115537 | 67 | 0 | 0.0 | 0.0 | 0.00 | 0.00 | 0.00 | 95 | 1022.9 |
| 20260902115035 | 67 | 0 | 0.0 | 0.0 | 0.00 | 0.00 | 0.00 | 95 | 1022.7 |
| 20260902114556 | 67 | 0 | 0.0 | 0.0 | 0.00 | 0.00 | 0.00 | 95 | 1022.7 |
| 20260902114035 | 67 | 0 | 0.0 | 0.0 | 0.00 | 0.00 | 0.00 | 95 | 1022.7 |
| 20260902113533 | 67 | 0 | 0.0 | 0.0 | 0.00 | 0.00 | 0.00 | 95 | 1022.6 |
| 20260902113051 | 67 | 0 | 0.0 | 0.0 | 0.00 | 0.00 | 0.00 | 95 | 1022.6 |
| 20260902112533 | 67 | 0 | 0.0 | 0.0 | 0.00 | 0.00 | 0.00 | 94 | 1022.6 |
| 20260902112036 | 67 | 0 | 0.0 | 0.0 | 0.00 | 0.00 | 0.00 | 94 | 1022.4 |
| 20260902111555 | 67 | 0 | 0.0 | 0.0 | 0.00 | 0.00 | 0.00 | 94 | 1022.3 |
| 20260902111034 | 67 | 0 | 0.0 | 0.0 | 0.00 | 0.00 | 0.00 | 94 | 1022.3 |
| 20260902110534 | 67 | 0 | 0.0 | 0.0 | 0.00 | 0.00 | 0.00 | 95 | 1022.3 |
| 20260902105533 | 67 | 0 | 0.0 | 0.0 | 0.00 | 0.00 | 0.00 | 94 | 1022.3 |
| 20260902105034 | 67 | 0 | 0.0 | 0.0 | 0.00 | 0.00 | 0.00 | 94 | 1022.3 |
| 20260902104553 | 67 | 0 | 0.0 | 0.0 | 0.00 | 0.00 | 0.00 | 94 | 1022.2 |
| 20260902104034 | 67 | 0 | 0.0 | 0.0 | 0.00 | 0.00 | 0.00 | 94 | 1022.3 |
| 20260902103533 | 67 | 0 | 0.0 | 0.0 | 0.00 | 0.00 | 0.00 | 94 | 1022.3 |
| 20260902103053 | 67 | 0 | 0.0 | 0.0 | 0.00 | 0.00 | 0.00 | 94 | 1022.3 |
| 20260902102536 | 67 | 0 | 0.0 | 0.0 | 0.00 | 0.00 | 0.00 | 94 | 1022.1 |
| 20260902102034 | 67 | 0 | 0.0 | 0.0 | 0.00 | 0.00 | 0.00 | 94 | 1022.1 |
| 20260902101557 | 67 | 0 | 0.0 | 0.0 | 0.00 | 0.00 | 0.00 | 94 | 1022.1 |
| 20260902101033 | 67 | 0 | 0.0 | 0.0 | 0.00 | 0.00 | 0.00 | 94 | 1022.2 |
| 20260902100534 | 67 | 0 | 0.0 | 0.0 | 0.00 | 0.00 | 0.00 | 94 | 1022.1 |
| 20260902100057 | 67 | 0 | 0.0 | 0.0 | 0.00 | 0.00 | 0.00 | 94 | 1022.0 |
| 20260902095535 | 67 | 0 | 0.0 | 0.0 | 0.00 | 0.00 | 0.00 | 94 | 1022.1 |
| 20260902095033 | 67 | 0 | 0.0 | 0.0 | 0.00 | 0.00 | 0.00 | 94 | 1022.1 |
| 20260902094558 | 67 | 0 | 0.0 | 0.0 | 0.00 | 0.00 | 0.00 | 94 | 1022.1 |
| 20260902094033 | 68 | 0 | 0.0 | 0.0 | 0.00 | 0.00 | 0.00 | 94 | 1022.1 |
| 20260902093534 | 68 | 0 | 0.0 | 0.0 | 0.00 | 0.00 | 0.00 | 94 | 1022.0 |
| 20260902093057 | 68 | 0 | 0.0 | 0.0 | 0.00 | 0.00 | 0.00 | 94 | 1022.0 |
| 20260902092534 | 68 | 0 | 0.0 | 0.0 | 0.00 | 0.00 | 0.00 | 94 | 1021.9 |
| 20260902092034 | 68 | 0 | 0.0 | 0.0 | 0.00 | 0.00 | 0.00 | 94 | 1021.9 |
| 20260902091611 | 68 | 0 | 0.0 | 0.0 | 0.00 | 0.00 | 0.00 | 94 | 1021.7 |
| 20260902091033 | 68 | 0 | 0.0 | 0.0 | 0.00 | 0.00 | 0.00 | 94 | 1021.7 |
| 20260902090538 | 68 | 0 | 0.0 | 0.0 | 0.00 | 0.00 | 0.00 | 94 | 1021.7 |
| 20260902090052 | 68 | 0 | 0.0 | 0.0 | 0.00 | 0.00 | 0.00 | 94 | 1021.7 |
| 20260902085537 | 68 | 0 | 0.0 | 0.0 | 0.00 | 0.00 | 0.00 | 94 | 1021.7 |
| 20260902085035 | 68 | 0 | 0.0 | 0.0 | 0.00 | 0.00 | 0.00 | 94 | 1021.5 |
| 20260902084557 | 68 | 0 | 0.0 | 0.0 | 0.00 | 0.00 | 0.00 | 94 | 1021.5 |
| 20260902084035 | 68 | 0 | 0.0 | 0.0 | 0.00 | 0.00 | 0.00 | 94 | 1021.4 |
| 20260902083538 | 68 | 0 | 0.0 | 0.0 | 0.00 | 0.00 | 0.00 | 94 | 1021.5 |
| 20260902083059 | 68 | 0 | 0.0 | 0.0 | 0.00 | 0.00 | 0.00 | 94 | 1021.4 |
| 20260902082535 | 68 | 0 | 0.0 | 0.0 | 0.00 | 0.00 | 0.00 | 94 | 1021.3 |
| 20260902082034 | 68 | 0 | 0.0 | 0.0 | 0.00 | 0.00 | 0.00 | 94 | 1021.4 |
| 20260902081555 | 68 | 0 | 0.0 | 0.0 | 0.00 | 0.00 | 0.00 | 94 | 1021.4 |
| 20260902081035 | 68 | 0 | 0.0 | 0.0 | 0.00 | 0.00 | 0.00 | 94 | 1021.3 |
| 20260902080533 | 68 | 0 | 0.0 | 0.0 | 0.00 | 0.00 | 0.00 | 94 | 1021.5 |
| 20260902080059 | 69 | 0 | 0.0 | 0.0 | 0.00 | 0.00 | 0.00 | 94 | 1021.5 |
| 20260902075533 | 69 | 0 | 0.0 | 0.0 | 0.00 | 0.00 | 0.00 | 94 | 1021.7 |
| 20260902075032 | 69 | 0 | 0.0 | 0.0 | 0.00 | 0.00 | 0.00 | 94 | 1021.6 |
| 20260902074551 | 69 | 0 | 0.0 | 0.0 | 0.00 | 0.00 | 0.00 | 94 | 1021.5 |
| 20260902074034 | 69 | 0 | 0.0 | 0.0 | 0.00 | 0.00 | 0.00 | 94 | 1021.4 |
| 20260902073535 | 69 | 0 | 0.0 | 0.0 | 0.00 | 0.00 | 0.00 | 94 | 1021.5 |
| 20260902073058 | 69 | 0 | 0.0 | 0.0 | 0.00 | 0.00 | 0.00 | 94 | 1021.5 |
| 20260902072534 | 69 | 0 | 0.0 | 0.0 | 0.00 | 0.00 | 0.00 | 94 | 1021.6 |
| 20260902072037 | 69 | 0 | 0.0 | 0.0 | 0.00 | 0.00 | 0.00 | 94 | 1021.6 |
| 20260902071557 | 69 | 0 | 0.0 | 0.0 | 0.00 | 0.00 | 0.00 | 94 | 1021.6 |
| 20260902071035 | 69 | 0 | 0.0 | 0.0 | 0.00 | 0.00 | 0.00 | 94 | 1021.6 |
| 20260902070534 | 69 | 0 | 0.0 | 0.0 | 0.00 | 0.00 | 0.00 | 94 | 1021.6 |
| 20260902070104 | 69 | 0 | 0.0 | 0.0 | 0.00 | 0.00 | 0.00 | 94 | 1021.7 |
| 20260902065533 | 69 | 0 | 0.0 | 0.0 | 0.00 | 0.00 | 0.00 | 94 | 1021.7 |
| 20260902065033 | 69 | 0 | 0.0 | 0.0 | 0.00 | 0.00 | 0.00 | 94 | 1021.7 |
| 20260902064556 | 69 | 0 | 0.0 | 0.0 | 0.00 | 0.00 | 0.00 | 94 | 1021.6 |
| 20260902064033 | 69 | 0 | 0.0 | 0.0 | 0.00 | 0.00 | 0.00 | 93 | 1021.8 |
| 20260902063533 | 69 | 0 | 0.0 | 0.0 | 0.00 | 0.00 | 0.00 | 93 | 1021.7 |
| 20260902063103 | 69 | 0 | 0.0 | 0.0 | 0.00 | 0.00 | 0.00 | 93 | 1021.7 |
| 20260902062533 | 69 | 0 | 0.0 | 0.0 | 0.00 | 0.00 | 0.00 | 93 | 1021.7 |
| 20260902062034 | 69 | 0 | 0.0 | 0.0 | 0.00 | 0.00 | 0.00 | 93 | 1021.8 |
| 20260902061613 | 69 | 0 | 0.0 | 0.0 | 0.00 | 0.00 | 0.00 | 93 | 1021.7 |
| 20260902061036 | 69 | 0 | 0.0 | 0.0 | 0.00 | 0.00 | 0.00 | 93 | 1021.8 |
| 20260902060535 | 69 | 0 | 0.0 | 0.0 | 0.00 | 0.00 | 0.00 | 93 | 1021.8 |
| 20260902060056 | 70 | 0 | 0.0 | 0.0 | 0.00 | 0.00 | 0.00 | 93 | 1021.7 |
| 20260902055533 | 70 | 0 | 0.0 | 0.0 | 0.00 | 0.00 | 0.00 | 93 | 1021.8 |
| 20260902055038 | 70 | 0 | 0.0 | 0.0 | 0.00 | 0.00 | 0.00 | 93 | 1021.8 |
| 20260902054556 | 70 | 0 | 0.0 | 0.0 | 0.00 | 0.00 | 0.00 | 93 | 1021.9 |
| 20260902054033 | 70 | 0 | 0.0 | 0.0 | 0.00 | 0.00 | 0.00 | 93 | 1021.9 |
| 20260902053533 | 70 | 0 | 0.0 | 0.0 | 0.00 | 0.00 | 0.00 | 93 | 1021.9 |
| 20260902053059 | 70 | 0 | 0.0 | 0.0 | 0.00 | 0.00 | 0.00 | 93 | 1021.9 |
| 20260902052539 | 70 | 0 | 0.0 | 0.0 | 0.00 | 0.00 | 0.00 | 93 | 1021.9 |
| 20260902052033 | 70 | 0 | 0.0 | 0.0 | 0.00 | 0.00 | 0.00 | 92 | 1022.0 |
| 20260902051553 | 70 | 0 | 0.0 | 0.0 | 0.00 | 0.00 | 0.00 | 92 | 1021.9 |
| 20260902051035 | 70 | 0 | 0.0 | 0.0 | 0.00 | 0.00 | 0.00 | 92 | 1022.0 |
| 20260902050534 | 70 | 0 | 0.0 | 0.0 | 0.00 | 0.00 | 0.00 | 92 | 1022.0 |
| 20260902050057 | 70 | 0 | 0.0 | 0.0 | 0.00 | 0.00 | 0.00 | 92 | 1022.1 |
| 20260902045533 | 71 | 0 | 0.0 | 0.0 | 0.00 | 0.00 | 0.00 | 92 | 1022.0 |
| 20260902045033 | 71 | 0 | 0.0 | 0.0 | 0.00 | 0.00 | 0.00 | 92 | 1022.0 |
| 20260902044600 | 71 | 0 | 0.0 | 0.0 | 0.00 | 0.00 | 0.00 | 92 | 1022.0 |
| 20260902044035 | 71 | 0 | 0.0 | 0.0 | 0.00 | 0.00 | 0.00 | 92 | 1022.0 |
| 20260902043533 | 71 | 0 | 0.0 | 0.0 | 0.00 | 0.00 | 0.00 | 92 | 1022.0 |
| 20260902043100 | 71 | 0 | 0.0 | 0.0 | 0.00 | 0.00 | 0.00 | 92 | 1022.0 |
| 20260902042533 | 71 | 0 | 0.0 | 0.0 | 0.00 | 0.00 | 0.00 | 92 | 1022.0 |
| 20260902042034 | 71 | 0 | 0.0 | 0.0 | 0.00 | 0.00 | 0.00 | 91 | 1022.0 |
| 20260902041559 | 71 | 0 | 0.0 | 0.0 | 0.00 | 0.00 | 0.00 | 91 | 1022.0 |
| 20260902041033 | 71 | 0 | 0.0 | 0.0 | 0.00 | 0.00 | 0.00 | 91 | 1021.8 |
| 20260902040533 | 71 | 0 | 0.0 | 0.0 | 0.00 | 0.00 | 0.00 | 91 | 1021.9 |
| 20260902040059 | 72 | 0 | 0.0 | 0.0 | 0.00 | 0.00 | 0.00 | 91 | 1021.9 |
| 20260902035534 | 72 | 0 | 0.0 | 0.0 | 0.00 | 0.00 | 0.00 | 91 | 1021.9 |
| 20260902035033 | 72 | 0 | 0.0 | 0.0 | 0.00 | 0.00 | 0.00 | 91 | 1021.9 |
| 20260902034600 | 72 | 0 | 0.0 | 0.0 | 0.00 | 0.00 | 0.00 | 90 | 1021.8 |
| 20260902034033 | 72 | 0 | 0.0 | 0.0 | 0.00 | 0.00 | 0.00 | 90 | 1021.8 |
| 20260902033533 | 72 | 0 | 0.0 | 0.0 | 0.00 | 0.00 | 0.00 | 90 | 1021.9 |
| 20260902033100 | 72 | 0 | 0.0 | 0.0 | 0.00 | 0.00 | 0.00 | 90 | 1022.0 |
| 20260902032534 | 72 | 0 | 0.0 | 0.0 | 0.00 | 0.00 | 0.00 | 90 | 1021.8 |
| 20260902032033 | 72 | 0 | 0.0 | 0.0 | 0.00 | 0.00 | 0.00 | 90 | 1021.9 |
| 20260902031555 | 73 | 0 | 0.0 | 0.0 | 0.00 | 0.00 | 0.00 | 89 | 1021.9 |
| 20260902031033 | 73 | 0 | 0.0 | 0.0 | 0.00 | 0.00 | 0.00 | 89 | 1022.0 |
| 20260902030534 | 73 | 0 | 0.0 | 0.0 | 0.00 | 0.00 | 0.00 | 89 | 1022.0 |
| 20260902030058 | 73 | 0 | 0.0 | 0.0 | 0.00 | 0.00 | 0.00 | 89 | 1022.1 |
| 20260902025534 | 73 | 0 | 0.0 | 0.0 | 0.00 | 0.00 | 0.00 | 89 | 1022.0 |
| 20260902025037 | 73 | 0 | 0.0 | 0.0 | 0.00 | 0.00 | 0.00 | 89 | 1022.0 |
| 20260902024555 | 73 | 0 | 0.0 | 0.0 | 0.00 | 0.00 | 0.00 | 88 | 1022.0 |
| 20260902024033 | 73 | 0 | 0.0 | 0.0 | 0.00 | 0.00 | 0.00 | 88 | 1022.0 |
| 20260902023533 | 73 | 0 | 0.0 | 0.0 | 0.00 | 0.00 | 0.00 | 88 | 1022.0 |
| 20260902023053 | 74 | 0 | 0.0 | 0.0 | 0.00 | 0.00 | 0.00 | 88 | 1021.8 |
| 20260902022533 | 74 | 0 | 0.0 | 0.0 | 0.00 | 0.00 | 0.00 | 88 | 1021.9 |
| 20260902022037 | 74 | 0 | 0.0 | 0.0 | 0.00 | 0.00 | 0.00 | 88 | 1021.8 |
| 20260902021610 | 74 | 0 | 0.0 | 0.0 | 0.00 | 0.00 | 0.00 | 87 | 1021.9 |
| 20260902021033 | 74 | 0 | 0.0 | 0.0 | 0.00 | 0.00 | 0.00 | 87 | 1022.0 |
| 20260902020533 | 74 | 0 | 0.0 | 0.0 | 0.00 | 0.00 | 0.00 | 87 | 1021.7 |
| 20260902020056 | 74 | 0 | 0.0 | 0.0 | 0.00 | 0.00 | 0.00 | 87 | 1021.8 |
| 20260902015537 | 74 | 0 | 0.0 | 0.0 | 0.00 | 0.00 | 0.00 | 86 | 1021.8 |
| 20260902015119 | 74 | 0 | 0.0 | 0.0 | 0.00 | 0.00 | 0.00 | 86 | 1021.7 |
| 20260902014559 | 74 | 0 | 0.0 | 0.0 | 0.00 | 0.00 | 0.00 | 86 | 1021.7 |
| 20260902014036 | 75 | 0 | 0.0 | 0.0 | 0.00 | 0.00 | 0.00 | 86 | 1021.7 |
| 20260902013533 | 75 | 0 | 0.0 | 0.0 | 0.00 | 0.00 | 0.00 | 86 | 1021.6 |
| 20260902013054 | 75 | 0 | 0.0 | 0.0 | 0.00 | 0.00 | 0.00 | 86 | 1021.6 |
| 20260902012538 | 75 | 0 | 0.0 | 0.0 | 0.00 | 0.00 | 0.00 | 86 | 1021.5 |
| 20260902012033 | 75 | 0 | 0.0 | 0.0 | 0.00 | 0.00 | 0.00 | 86 | 1021.4 |
| 20260902011557 | 75 | 0 | 0.0 | 0.0 | 0.00 | 0.00 | 0.00 | 86 | 1021.4 |
| 20260902011033 | 75 | 0 | 0.0 | 0.0 | 0.00 | 0.00 | 0.00 | 86 | 1021.3 |
| 20260902010533 | 75 | 0 | 0.0 | 0.0 | 0.00 | 0.00 | 0.00 | 86 | 1021.3 |
| 20260902010054 | 75 | 0 | 0.0 | 0.0 | 0.00 | 0.00 | 0.00 | 86 | 1021.3 |
| 20260902005533 | 76 | 0 | 0.0 | 1.0 | 0.00 | 0.00 | 0.00 | 86 | 1021.4 |
| 20260902005034 | 76 | 0 | 0.0 | 1.0 | 0.00 | 0.00 | 0.00 | 86 | 1021.3 |
| 20260902004552 | 76 | 0 | 0.0 | 1.0 | 0.00 | 0.00 | 0.00 | 85 | 1021.2 |
| 20260902004036 | 76 | 0 | 0.0 | 0.0 | 0.00 | 0.00 | 0.00 | 85 | 1021.3 |
| 20260902003533 | 76 | 0 | 0.0 | 0.0 | 0.00 | 0.00 | 0.00 | 84 | 1021.2 |
| 20260902003058 | 77 | 0 | 0.0 | 0.0 | 0.00 | 0.00 | 0.00 | 84 | 1021.2 |
| 20260902002533 | 77 | 0 | 0.0 | 0.0 | 0.00 | 0.00 | 0.00 | 83 | 1021.3 |
| 20260902002041 | 77 | 0 | 0.0 | 0.0 | 0.00 | 0.00 | 0.00 | 83 | 1021.2 |
| 20260902001555 | 77 | 0 | 0.0 | 0.0 | 0.00 | 0.00 | 0.00 | 83 | 1021.3 |
| 20260902001033 | 77 | 0 | 0.0 | 0.0 | 0.00 | 0.00 | 0.00 | 83 | 1021.1 |
| 20260902000533 | 78 | 0 | 0.0 | 0.0 | 0.00 | 0.00 | 0.00 | 83 | 1021.1 |
| 20260902000103 | 78 | 0 | 0.0 | 0.0 | 0.00 | 0.00 | 0.00 | 82 | 1021.0 |
| 20260901235536 | 78 | 0 | 0.0 | 0.0 | 0.00 | 0.00 | 0.00 | 82 | 1021.1 |